LA8QT Lodingen NO current weather conditions

sailwx.info

Wind from 358

Air temperature 15.6° C
Dewpoint 11.1° C

Last reported at 2016-Jul-01 03:42 UTC.
Time now 2016-Jul-01 04:31 UTC

Location: N 68°28' E 016°04'.
View on Google Maps.

See reports from other nearby stations

  
Tides and Currents Weather Stations Pressure Air Temp Water Temp Dewpoint Dewpoint Depression Visibility Wind Speed Wind Dir Waves Ship Positions
date/time (UTC)wind fromknots sea level pressurealtimeterstation pressurevisibilityair tempwater tempwave heightnotes
2016-Jul-01 03:42 358 15.6
2016-Jul-01 03:27 305 15.6
2016-Jul-01 03:11 305 15.6
2016-Jul-01 02:56 300 16.1
2016-Jul-01 02:41 295 16.7
2016-Jul-01 02:26 295 0 16.7
2016-Jul-01 02:11 295 16.1
2016-Jul-01 01:56 339 16.1
2016-Jul-01 01:41 355 16.1
2016-Jul-01 01:26 300 17.2
2016-Jul-01 01:11 319 16.1
2016-Jul-01 00:56 346 0 15.6
2016-Jul-01 00:41 020 16.7
2016-Jul-01 00:26 304 0 16.7
2016-Jul-01 00:11 007 17.2
2016-Jun-30 23:56 007 17.8
2016-Jun-30 23:41 007 17.8
2016-Jun-30 23:26 360 4 17.2
2016-Jun-30 23:11 020 0 16.7
2016-Jun-30 22:56 219 17.8
2016-Jun-30 22:41 221 18.9
2016-Jun-30 22:26 221 18.9
2016-Jun-30 22:11 300 18.3
2016-Jun-30 21:56 304 18.9
2016-Jun-30 21:41 304 19.4
2016-Jun-30 21:26 304 18.9
2016-Jun-30 21:11 304 18.9
2016-Jun-30 20:56 334 18.9
2016-Jun-30 20:41 352 18.9
2016-Jun-30 20:26 352 0 18.9
2016-Jun-30 20:11 310 20.0
2016-Jun-30 19:56 096 20.0
2016-Jun-30 19:41 295 0 20.0
2016-Jun-30 19:26 177 19.4
2016-Jun-30 19:11 156 0 20.6
2016-Jun-30 18:56 305 21.7
2016-Jun-30 18:41 356 21.7
2016-Jun-30 18:26 356 21.7
2016-Jun-30 18:11 356 22.8
2016-Jun-30 17:56 356 23.3
2016-Jun-30 17:41 325 23.3
2016-Jun-30 17:26 325 4 22.2
2016-Jun-30 17:11 359 0 23.3
2016-Jun-30 16:56 176 23.3
2016-Jun-30 16:41 177 23.3
2016-Jun-30 16:26 177 23.3
2016-Jun-30 16:11 185 23.3
2016-Jun-30 15:56 189 0 23.3
2016-Jun-30 15:41 199 23.3
2016-Jun-30 15:26 183 23.3
2016-Jun-30 15:11 218 0 23.3
2016-Jun-30 14:56 206 0 23.3
2016-Jun-30 14:41 185 0 22.8
2016-Jun-30 14:26 187 0 22.8
2016-Jun-30 14:11 191 0 22.8
2016-Jun-30 13:56 181 1 22.2
2016-Jun-30 13:41 186 2 22.8
2016-Jun-30 13:26 188 2 22.2
2016-Jun-30 13:11 295 0 22.8
2016-Jun-30 12:56 187 0 22.8
2016-Jun-30 12:41 162 0 22.8
2016-Jun-30 12:26 169 0 22.2
2016-Jun-30 12:11 194 0 22.2
2016-Jun-30 11:56 181 0 22.2
2016-Jun-30 11:41 187 22.2
2016-Jun-30 11:26 181 22.8
2016-Jun-30 11:10 228 21.7
2016-Jun-30 10:55 028 20.6
2016-Jun-30 10:40 028 20.6
2016-Jun-30 10:25 017 0 20.6
2016-Jun-30 10:10 020 1 19.4
2016-Jun-30 09:56 016 0 19.4
2016-Jun-30 09:40 023 1 18.9
2016-Jun-30 09:25 038 4 18.3
2016-Jun-30 09:10 013 6 17.8
2016-Jun-30 08:55 026 6 17.8
2016-Jun-30 08:40 006 7 16.7
2016-Jun-30 08:25 351 6 17.2
2016-Jun-30 08:10 018 6 17.2
2016-Jun-30 07:55 017 5 16.1
2016-Jun-30 07:40 033 6 16.7
2016-Jun-30 07:25 350 8 15.6
2016-Jun-30 07:10 027 7 15.0
2016-Jun-30 06:55 019 9 14.4
2016-Jun-30 06:40 011 10 13.9
2016-Jun-30 06:25 015 10 13.3
2016-Jun-30 06:10 014 10 13.3
2016-Jun-30 05:55 010 10 13.3
2016-Jun-30 05:40 010 11 12.8
2016-Jun-30 05:25 017 12 12.2
2016-Jun-30 05:11 329 11 12.2
2016-Jun-30 04:55 022 11 12.2
2016-Jun-30 04:40 007 9 12.2
2016-Jun-30 04:25 021 8 12.2
2016-Jun-30 04:10 340 6 12.2
2016-Jun-30 03:55 358 6 11.7
2016-Jun-30 03:40 349 6 11.1
2016-Jun-30 03:25 349 4 11.1
2016-Jun-30 03:10 319 5 11.1
2016-Jun-30 02:55 327 2 11.1
2016-Jun-30 02:40 002 4 10.6
2016-Jun-30 02:25 328 6 10.6
2016-Jun-30 02:10 002 6 11.1
2016-Jun-30 01:55 344 5 11.1
2016-Jun-30 01:39 336 6 11.1
2016-Jun-30 01:24 321 5 11.1
2016-Jun-30 01:09 331 4 10.6
2016-Jun-30 00:54 327 5 11.1
2016-Jun-30 00:39 320 5 11.1
2016-Jun-30 00:25 356 6 11.1
2016-Jun-30 00:09 009 7 11.1
2016-Jun-29 23:54 337 6 11.1
2016-Jun-29 23:39 009 6 11.1
2016-Jun-29 23:24 344 6 11.1
2016-Jun-29 23:09 339 7 11.1
2016-Jun-29 22:54 356 6 11.7
2016-Jun-29 22:39 350 6 11.7
2016-Jun-29 22:24 339 6 11.7
2016-Jun-29 22:09 314 6 11.7
2016-Jun-29 21:54 336 7 11.7
2016-Jun-29 21:39 344 8 11.7
2016-Jun-29 21:24 345 9 11.7
2016-Jun-29 21:09 316 7 11.7
2016-Jun-29 20:54 341 7 12.2
2016-Jun-29 20:39 341 6 12.2
2016-Jun-29 20:24 337 7 12.2
2016-Jun-29 20:09 017 6 12.2
2016-Jun-29 19:54 348 6 12.2
2016-Jun-29 19:39 342 8 12.8
2016-Jun-29 19:24 337 8 12.2
2016-Jun-29 19:09 350 8 12.8
2016-Jun-29 18:54 356 8 12.8
2016-Jun-29 18:39 352 7 12.8
2016-Jun-29 18:24 332 8 12.8
2016-Jun-29 18:09 335 8 12.8
2016-Jun-29 17:54 323 8 13.3
2016-Jun-29 17:39 330 7 13.3
2016-Jun-29 17:24 295 6 13.3
2016-Jun-29 17:09 344 6 13.3
2016-Jun-29 16:54 348 4 13.9
2016-Jun-29 16:39 341 4 13.3
2016-Jun-29 16:24 003 4 13.3
2016-Jun-29 16:09 013 6 12.8
2016-Jun-29 15:54 001 3 13.3
2016-Jun-29 15:39 350 4 12.8
2016-Jun-29 15:24 356 5 12.8
2016-Jun-29 15:09 035 3 12.8
2016-Jun-29 14:54 089 0 12.2
2016-Jun-29 14:39 150 12.2
2016-Jun-29 14:24 150 12.2
2016-Jun-29 14:09 150 12.2
2016-Jun-29 13:54 151 12.2
2016-Jun-29 13:39 156 0 12.2
2016-Jun-29 13:24 154 12.2
2016-Jun-29 13:09 152 12.2
2016-Jun-29 12:54 146 0 12.2
2016-Jun-29 12:39 146 12.2
2016-Jun-29 12:24 146 12.2
2016-Jun-29 12:09 146 0 12.2
2016-Jun-29 11:54 162 0 12.2
2016-Jun-29 11:39 158 12.2
2016-Jun-29 11:24 160 12.2
2016-Jun-29 11:09 157 12.2
2016-Jun-29 10:54 148 12.2
2016-Jun-29 10:38 137 11.7
2016-Jun-29 10:24 137 0 11.7
2016-Jun-29 10:09 133 5 11.7
2016-Jun-29 09:53 131 4 11.7
2016-Jun-29 09:39 104 1 12.2
2016-Jun-29 09:23 359 0 12.2
2016-Jun-29 09:08 354 2 12.2
2016-Jun-29 08:53 346 1 11.7
2016-Jun-29 08:38 327 1 11.7
2016-Jun-29 08:23 348 11.1
2016-Jun-29 08:08 348 0 11.1
2016-Jun-29 07:53 286 11.1
2016-Jun-29 07:38 152 11.1
2016-Jun-29 07:23 152 11.1
2016-Jun-29 07:08 152 11.1
2016-Jun-29 06:54 152 11.1
2016-Jun-29 06:38 152 11.1
2016-Jun-29 06:23 152 11.1
2016-Jun-29 06:08 152 11.1
2016-Jun-29 05:53 150 11.1
2016-Jun-29 05:38 152 11.1
2016-Jun-29 05:23 151 11.1
2016-Jun-29 05:08 152 11.1
2016-Jun-29 04:53 152 11.1
2016-Jun-29 04:38 152 11.1
2016-Jun-29 04:23 151 11.1
2016-Jun-29 04:08 152 11.1